EN

Hourly Weather Laczka

Today, 24 July, Saturday

Time Temperature Precipitation Wind Pressure Humidity
00:00 +19°C° 0 mm 1 mps 749 mmHg 79%
01:00 +18°C° 0 mm 1 mps 749 mmHg 80%
02:00 +18°C° 0 mm 1 mps 749 mmHg 79%
03:00 +18°C° 0 mm 1 mps 749 mmHg 79%
04:00 +18°C° 0 mm 1 mps 749 mmHg 79%
05:00 +19°C° 0 mm 1 mps 749 mmHg 76%
06:00 +20°C° 0 mm 1 mps 749 mmHg 73%
07:00 +21°C° 0 mm 1 mps 749 mmHg 70%
08:00 +22°C° 0 mm 1 mps 749 mmHg 66%
09:00 +23°C° 0 mm 1 mps 750 mmHg 62%
10:00 +24°C° 0 mm 1 mps 750 mmHg 57%
11:00 +25°C° 0 mm 1 mps 750 mmHg 54%
12:00 +26°C° 0 mm 1 mps 749 mmHg 52%
13:00 +26°C° 0 mm 1 mps 749 mmHg 49%
14:00 +26°C° 0 mm 1 mps 749 mmHg 51%
15:00 +25°C° 0 mm 1 mps 749 mmHg 53%
16:00 +25°C° 0 mm 2 mps 749 mmHg 55%
17:00 +24°C° 0 mm 2 mps 749 mmHg 57%
18:00 +23°C° 0 mm 2 mps 749 mmHg 59%
19:00 +23°C° 0 mm 2 mps 749 mmHg 61%
20:00 +21°C° 0 mm 2 mps 749 mmHg 62%
21:00 +20°C° 0 mm 2 mps 749 mmHg 64%
22:00 +20°C° 0 mm 2 mps 749 mmHg 65%
23:00 +20°C° 0 mm 2 mps 749 mmHg 65%

Tomorrow, 25 July, Sunday

Time Temperature Precipitation Wind Pressure Humidity
00:00 +20°C° 0 mm 2 mps 749 mmHg 66%
01:00 +20°C° 0 mm 2 mps 749 mmHg 66%
02:00 +19°C° 0.1 mm 3 mps 749 mmHg 68%
03:00 +19°C° 0.1 mm 3 mps 749 mmHg 70%
04:00 +19°C° 0.1 mm 3 mps 749 mmHg 71%
05:00 +20°C° 0 mm 3 mps 749 mmHg 70%
06:00 +21°C° 0 mm 3 mps 749 mmHg 68%
07:00 +22°C° 0 mm 4 mps 749 mmHg 67%
08:00 +25°C° 0 mm 4 mps 749 mmHg 60%
09:00 +26°C° 0 mm 5 mps 749 mmHg 53%
10:00 +28°C° 0 mm 5 mps 749 mmHg 46%
11:00 +29°C° 0 mm 5 mps 749 mmHg 44%
12:00 +29°C° 0 mm 6 mps 749 mmHg 43%
13:00 +30°C° 0 mm 6 mps 749 mmHg 41%
14:00 +30°C° 0 mm 5 mps 749 mmHg 41%
15:00 +30°C° 0 mm 4 mps 749 mmHg 41%
16:00 +30°C° 0 mm 4 mps 748 mmHg 41%
17:00 +29°C° 0 mm 4 mps 748 mmHg 46%
18:00 +27°C° 0 mm 4 mps 748 mmHg 51%
19:00 +26°C° 0 mm 4 mps 748 mmHg 56%
20:00 +25°C° 0 mm 4 mps 749 mmHg 56%
21:00 +25°C° 0 mm 4 mps 749 mmHg 57%
22:00 +23°C° 0 mm 4 mps 749 mmHg 57%
23:00 +23°C° 0 mm 4 mps 749 mmHg 58%

Day after tomorrow, 26 July, Monday

Time Temperature Precipitation Wind Pressure Humidity
00:00 +23°C° 0 mm 5 mps 749 mmHg 58%
01:00 +22°C° 0 mm 5 mps 749 mmHg 59%
02:00 +22°C° 0 mm 5 mps 748 mmHg 62%
03:00 +21°C° 0 mm 5 mps 748 mmHg 66%
04:00 +21°C° 0 mm 5 mps 748 mmHg 69%
05:00 +22°C° 0 mm 6 mps 748 mmHg 66%
06:00 +23°C° 0 mm 6 mps 748 mmHg 63%
07:00 +24°C° 0 mm 7 mps 748 mmHg 61%
08:00 +27°C° 0 mm 7 mps 748 mmHg 55%
09:00 +28°C° 0 mm 7 mps 748 mmHg 50%
10:00 +30°C° 0 mm 7 mps 748 mmHg 45%
11:00 +32°C° 0 mm 7 mps 747 mmHg 43%
12:00 +33°C° 0 mm 7 mps 747 mmHg 41%
13:00 +33°C° 0 mm 7 mps 747 mmHg 39%
14:00 +33°C° 0 mm 7 mps 747 mmHg 40%
15:00 +33°C° 0 mm 7 mps 747 mmHg 41%
16:00 +33°C° 0 mm 7 mps 746 mmHg 41%
17:00 +29°C° 1.1 mm 6 mps 747 mmHg 55%
18:00 +26°C° 1.1 mm 5 mps 747 mmHg 69%
19:00 +22°C° 1.1 mm 4 mps 747 mmHg 82%
20:00 +22°C° 1.3 mm 4 mps 747 mmHg 86%
21:00 +21°C° 1.3 mm 3 mps 747 mmHg 89%
22:00 +20°C° 1.3 mm 3 mps 747 mmHg 93%
23:00 +20°C° 0 mm 3 mps 747 mmHg 94%

27 July, Tuesday

Time Temperature Precipitation Wind Pressure Humidity
00:00 +20°C° 0 mm 3 mps 747 mmHg 95%
01:00 +20°C° 0 mm 3 mps 747 mmHg 96%
02:00 +19°C° 0 mm 2 mps 747 mmHg 96%
03:00 +19°C° 0 mm 2 mps 747 mmHg 95%
04:00 +20°C° 0 mm 1 mps 747 mmHg 95%
05:00 +21°C° 0 mm 1 mps 747 mmHg 89%
06:00 +23°C° 0 mm 1 mps 747 mmHg 84%
07:00 +24°C° 0 mm 1 mps 747 mmHg 79%
08:00 +25°C° 0 mm 1 mps 747 mmHg 75%
09:00 +26°C° 0 mm 2 mps 747 mmHg 71%
10:00 +27°C° 0 mm 2 mps 748 mmHg 68%
11:00 +28°C° 0 mm 1 mps 748 mmHg 64%
12:00 +28°C° 0 mm 1 mps 747 mmHg 61%
13:00 +29°C° 0 mm 1 mps 747 mmHg 58%
14:00 +30°C° 0.2 mm 1 mps 747 mmHg 55%
15:00 +28°C° 0.2 mm 0 mps 747 mmHg 53%
16:00 +28°C° 0.2 mm 0 mps 747 mmHg 50%
17:00 +29°C° 0.3 mm 1 mps 747 mmHg 58%
18:00 +27°C° 0.3 mm 1 mps 746 mmHg 65%
19:00 +25°C° 0.3 mm 1 mps 746 mmHg 72%
20:00 +24°C° 0.8 mm 1 mps 746 mmHg 78%
21:00 +23°C° 0.8 mm 2 mps 746 mmHg 84%
22:00 +21°C° 0.8 mm 2 mps 746 mmHg 89%
23:00 +21°C° 1.6 mm 2 mps 746 mmHg 92%

28 July, Wednesday

Time Temperature Precipitation Wind Pressure Humidity
00:00 +20°C° 1.6 mm 2 mps 746 mmHg 94%
01:00 +21°C° 1.6 mm 1 mps 745 mmHg 97%
02:00 +21°C° 0.4 mm 1 mps 745 mmHg 97%
03:00 +20°C° 0.4 mm 1 mps 745 mmHg 97%
04:00 +20°C° 0.4 mm 1 mps 745 mmHg 97%
05:00 +20°C° 0 mm 2 mps 745 mmHg 94%
06:00 +21°C° 0 mm 3 mps 745 mmHg 90%
07:00 +22°C° 0 mm 3 mps 745 mmHg 86%
08:00 +23°C° 0 mm 4 mps 746 mmHg 80%
09:00 +25°C° 0 mm 4 mps 746 mmHg 74%
10:00 +26°C° 0 mm 4 mps 746 mmHg 68%
11:00 +25°C° 0.7 mm 5 mps 746 mmHg 71%
12:00 +25°C° 0.7 mm 5 mps 746 mmHg 74%
13:00 +23°C° 0.7 mm 5 mps 746 mmHg 76%
14:00 +23°C° 0.4 mm 5 mps 746 mmHg 77%
15:00 +23°C° 0.4 mm 5 mps 746 mmHg 78%
16:00 +22°C° 0.4 mm 4 mps 746 mmHg 78%
17:00 +22°C° 0.2 mm 4 mps 746 mmHg 80%
18:00 +22°C° 0.2 mm 3 mps 746 mmHg 82%
19:00 +21°C° 0.2 mm 3 mps 746 mmHg 84%
20:00 +21°C° 0.1 mm 3 mps 747 mmHg 86%
21:00 +20°C° 0.1 mm 3 mps 747 mmHg 87%
22:00 +19°C° 0.1 mm 3 mps 747 mmHg 88%
23:00 +19°C° 0 mm 3 mps 748 mmHg 89%

29 July, Thursday

Time Temperature Precipitation Wind Pressure Humidity
00:00 +18°C° 0 mm 3 mps 748 mmHg 90%
01:00 +18°C° 0 mm 3 mps 748 mmHg 90%
02:00 +18°C° 0 mm 3 mps 748 mmHg 91%
03:00 +17°C° 0 mm 3 mps 748 mmHg 91%
04:00 +17°C° 0 mm 3 mps 748 mmHg 92%
05:00 +18°C° 0 mm 3 mps 748 mmHg 86%
06:00 +20°C° 0 mm 3 mps 749 mmHg 80%
07:00 +21°C° 0 mm 3 mps 749 mmHg 75%
08:00 +24°C° 0 mm 3 mps 749 mmHg 66%
09:00 +25°C° 0 mm 3 mps 749 mmHg 58%
10:00 +27°C° 0 mm 3 mps 749 mmHg 50%
11:00 +27°C° 0 mm 3 mps 749 mmHg 50%
12:00 +27°C° 0 mm 3 mps 749 mmHg 50%
13:00 +28°C° 0 mm 3 mps 749 mmHg 49%
14:00 +27°C° 0 mm 2 mps 749 mmHg 51%
15:00 +27°C° 0 mm 2 mps 749 mmHg 53%
16:00 +27°C° 0 mm 1 mps 749 mmHg 56%
17:00 +26°C° 0 mm 1 mps 749 mmHg 57%
18:00 +25°C° 0 mm 1 mps 749 mmHg 59%
19:00 +24°C° 0 mm 1 mps 748 mmHg 60%
20:00 +24°C° 0 mm 1 mps 748 mmHg 61%
21:00 +24°C° 0 mm 2 mps 748 mmHg 62%
22:00 +23°C° 0 mm 2 mps 748 mmHg 62%
23:00 +22°C° 0 mm 3 mps 748 mmHg 61%
Show more